Regional Weather Roundup
Issued by NWS Huntsville, AL

Home | Current Version | Previous Version | Text Only | Print | Product List | Glossary On
Versions: 1 2 3 4 5 6 7 8 9 10 11 12 13 14 15 16 17 18 19 20 21 22 23 24 25 26 27 28 29 30 31 32 33 34 35 36 37 38 39 40 41 42 43 44 45 46 47 48 49 50
000
ASUS44 KHUN 031410
RWRHUN

WEATHER ROUNDUP FOR THE TENNESSEE VALLEY
NATIONAL WEATHER SERVICE HUNTSVILLE AL
800 AM CST SAT DEC 03 2016

ALZ001>004-031500-
NORTHWEST ALABAMA

CITY           SKY/WX    TMP DP  RH WIND       PRES   REMARKS
RUSSELLVILLE     N/A     41 N/A N/A MISG        N/A
SHOALS AIRPORT CLOUDY    45  32  60 VRB3      30.31F
SHOALS TVA RES   N/A     45 N/A N/A MISG        N/A
$$

ALZ005>007-016-031500-
NORTH CENTRAL ALABAMA

CITY           SKY/WX    TMP DP  RH WIND       PRES   REMARKS
CULLMAN AG STN   N/A     41 N/A N/A CALM        N/A
DECATUR AP     CLOUDY    43  34  70 NE3       30.30F
HUNTSVILLE AP  CLOUDY    45  34  65 VRB3      30.29F
MERIDIANVILLE  CLOUDY    41  32  70 CALM      30.30S
REDSTONE ARSN  CLOUDY    43  34  71 E3        30.28F
VINEMONT AP    FAIR      41  35  78 CALM      30.29F
$$

ALZ008>010-031500-
NORTHEAST ALABAMA

CITY           SKY/WX    TMP DP  RH WIND       PRES   REMARKS
ALBERTVILLE    CLOUDY    43  41  93 E6        30.27F
FORT PAYNE     CLOUDY    36  32  87 CALM      30.30S
SCOTTSBORO AP  CLOUDY    39  36  87 NE5       30.32R
SCOTTSBORO HCN   N/A     37 N/A N/A MISG        N/A
VALLEY HEAD      N/A     36 N/A N/A MISG        N/A
$$

TNZ076-096-097-031500-
SOUTHEASTERN MIDDLE TENNESSEE

CITY           SKY/WX    TMP DP  RH WIND       PRES   REMARKS
TULLAHOMA      SUNNY     39  30  70 NE5       30.32R
WINCHESTER     SUNNY     37  34  87 N3        30.32R
$$

...SURROUNDING SITES...

CITY           SKY/WX    TMP DP  RH WIND       PRES   REMARKS
ATLANTA        PTSUNNY   44  34  67 NW6       30.27R
ANNISTON       CLOUDY    44  35  70 CALM      30.29S
BIRMINGHAM     CLOUDY    49  31  49 E8        30.28F
CHATTANOOGA    CLOUDY    42  33  70 NE7       30.32S
CORINTH        FAIR      45  32  61 CALM      30.31R
DALTON         CLOUDY    39  32  75 N7        30.30F WCI  34
GADSDEN        CLOUDY    41  38  89 N6        30.30F
GOLDEN TRNGL   CLOUDY    48  34  57 NE7       30.23R
HALEYVILLE     FAIR      44  32  62 NE5       30.30S
JACKSON TN     CLOUDY    43  33  68 E8        30.31F
MEMPHIS        CLOUDY    47  32  56 E12       30.27F
NASHVILLE      CLOUDY    41  33  73 E5        30.37R
OXFORD MS      LGT RAIN  45  32  61 E6        30.31R
ROME           CLOUDY    43  31  62 N3        30.30S
SAVANNAH       SUNNY     43  34  70 N5        30.30S
TUPELO         CLOUDY    46  33  60 N6        30.28S
TUSCALOOSA     CLOUDY    49  40  71 N3        30.28R
$$

...GULF COAST WEATHER...

CITY           SKY/WX    TMP DP  RH WIND       PRES   REMARKS
GULFPORT       CLOUDY    57  39  51 E13       30.16F
PASCAGOULA     CLOUDY    54  41  61 NE8       30.19R
MOBILE         CLOUDY    53  40  61 NE12      30.20F
GULF SHORES    CLOUDY    58  37  43 NE10G17   30.20R
PENSACOLA      CLOUDY    59  35  40 NE16      30.20R
DESTIN         CLOUDY    58  38  47 E8        30.21R
PANAMA CITY    CLOUDY    55  37  52 E7        30.21S
APPALACHICOLA  CLOUDY    58  40  51 NE9       30.21R
$$




USA.gov is the U.S. government's official web portal to all federal, state and local government web resources and services.